Regional Weather Roundup
Issued by NWS

Home | Current Version | Previous Version | Text Only | Print | Product List | Glossary On
Versions: 1 2 3 4 5 6 7 8 9 10 11 12 13 14 15 16 17 18 19 20 21 22 23 24 25 26 27 28 29 30 31 32 33 34 35 36 37 38 39 40 41 42 43 44 45 46 47 48 49 50
290
ASUS43 KDTX 270210
RWRMI
MICHIGAN HOURLY REGIONAL WEATHER ROUNDUP
NATIONAL WEATHER SERVICE DETROIT/PONTIAC MI
1000 PM EDT THU APR 26 2018

NOTE: "FAIR" INDICATES FEW OR NO CLOUDS BELOW 12,000 FEET WITH NO
SIGNIFICANT WEATHER AND/OR OBSTRUCTION TO VISIBILITY.

MIZ047>049-052>055-059>063-066>070-074>076-081>083-270300-
SOUTHEAST LOWER MICHIGAN

CITY           SKY/WX    TMP DP  RH WIND       PRES   REMARKS
ADRIAN         FAIR      50  36  58 SW3       29.86R
ALMA           FAIR      50  31  47 SW5       29.85S
ANN ARBOR      FAIR      50  37  61 SE6       29.84R
BAD AXE        FAIR      47  33  57 S3        29.84S
CARO           FAIR      46  31  56 CALM      29.83S
DETROIT CITY   FAIR      51  38  60 S7        29.86R
DETROIT        MOCLDY    50  39  66 S6        29.86R
FLINT          FAIR      52  28  39 S5        29.83S
GROSSE ILE     FAIR      46  43  88 S3        29.85S
HILLSDALE      FAIR      46  30  53 CALM      29.85S
HOWELL         FAIR      51  26  38 CALM      29.84R

CITY           SKY/WX    TMP DP  RH WIND       PRES   REMARKS
JACKSON        FAIR      52  32  46 W3        29.85R
LAMBERTVILLE   FAIR      56  40  56 SE5       29.85F
LANSING        FAIR      50  30  46 NW7       29.85S
LAPEER         FAIR      44  31  60 CALM      29.84S
MASON          FAIR      54  26  33 W5        29.85R
MONROE         FAIR      49  40  72 S9        29.85S
MT. CLEMENS    PTCLDY    52  41  66 VRB6      29.85S
PONTIAC        MOCLDY    52  28  39 CALM      29.83S
PORT HOPE        N/A     45  36  70 S6        29.81S
PORT HURON     FAIR      46  37  71 S3        29.86S
TRI CITIES     FAIR      51  33  50 W9        29.84R
MIDLAND        FAIR      53  31  42 SW3       29.82S
TROY           FAIR      55  36  50 S5        29.87R
SAGINAW HB     FAIR      54  30  40 W6        29.82F
$$
MIZ043>046-050>051-056>058-064>065-071>073-077>080-270300-
SOUTHWEST LOWER MICHIGAN

CITY           SKY/WX    TMP DP  RH WIND       PRES   REMARKS
BATTLE CREEK   FAIR      53  27  36 W3        29.87R
BENTON HARBOR  FAIR      48  29  47 SE5       29.85F
BIG RAPIDS     FAIR      47  26  43 SW3       29.82S
COLDWATER      FAIR      53  32  44 CALM      29.86R
FREMONT        FAIR      46  26  45 CALM      29.83S
HOLLAND        FAIR      49  29  46 S3        29.84F
GRAND RAPIDS   MOCLDY    50  26  39 S3        29.84S
IONIA          FAIR      51  26  37 W5        29.84S
KALAMAZOO      FAIR      51  29  42 CALM      29.86S
LUDINGTON      FAIR      49  29  46 S3        29.81S
MARSHALL       FAIR      50  29  44 CALM      29.86R
MOUNT PLEASANT FAIR      52  33  48 SW5       29.83S
MUSKEGON       MOCLDY    48  26  42 S5        29.83F
SOUTH HAVEN    FAIR      46  28  48 CALM      29.85S
$$
MIZ016>042-270300-
NORTHERN LOWER MICHIGAN

CITY           SKY/WX    TMP DP  RH WIND       PRES   REMARKS
ALPENA         FAIR      37  34  89 CALM      29.82R
BEAVER ISLAND  CLOUDY    41  34  75 W8        29.82F
BELLAIRE       FAIR      43  34  72 CALM      29.80R
CADILLAC       FAIR      48  28  46 SW3       29.80F
CHARLEVOIX     FAIR      40  33  76 NW10G20   29.86R WCI  33
FRANKFORT      FAIR      48  32  53 W3        29.80S
GAYLORD        FAIR      44  27  51 CALM      29.79S
GRAYLING       FAIR      42  26  52 CALM      29.79S
HARBOR SPRINGS FAIR      39  31  73 W3        29.81R
HOUGHTON LAKE  FAIR      50  31  48 SW3       29.81R
MANISTEE       FAIR      51  30  44 S3        29.80S
OSCODA         FAIR      45  28  52 SW5       29.79S
PELLSTON       FAIR      44  32  62 NW10      29.82R
ROGERS CITY    FAIR      37  33  85 CALM      29.82R
TRAVERSE CITY  FAIR      53  32  44 CALM      29.77S
$$
MIZ007>008-015-270300-
EASTERN UPPER MICHIGAN

CITY           SKY/WX    TMP DP  RH WIND       PRES   REMARKS
KINROSS        CLOUDY    45  32  60 W7        29.81R
MACKINAC ISLAN FAIR      42  33  70 NW10      29.81S
NEWBERRY       MOCLDY    39  33  80 CALM      29.82S
MUNISING         N/A     35  34  96 NW14      29.87R WCI  26
$$
MIZ004>006-011>014-085-270300-
CENTRAL UPPER MICHIGAN

CITY           SKY/WX    TMP DP  RH WIND       PRES   REMARKS
MANISTIQUE     FAIR      38  36  94 N9        29.83R WCI  31
ESCANABA       CLOUDY    40  33  76 N10G20    29.86R WCI  33
MENOMINEE      CLOUDY    47  33  58 N14G23    29.83R
SAWYER-GWINN   LGT RAIN  36  32  87 N12       29.87R WCI  27
$$
MIZ001>003-009>011-084-270300-
WESTERN UPPER MICHIGAN

CITY           SKY/WX    TMP DP  RH WIND       PRES   REMARKS
IRON MOUNTAIN  CLOUDY    43  36  76 N16       29.85R
HOUGHTON       FAIR      38  28  67 N5        29.87S WCI  34
COPPER HARBOR    N/A     38  30  73 N12       29.87S WCI  30
IRONWOOD       FAIR      35  32  88 SW3       29.89S
$$

ABBREVIATIONS USED IN REMARKS
   TC - TEMPERATURE IN CELSIUS
  WCI - WIND CHILL INDEX
   HX - HEAT INDEX
  VSB - VISIBILITY





USA.gov is the U.S. government's official web portal to all federal, state and local government web resources and services.